Back to catalog

BREEZE-M DEB

TANK

AliveHEO
NORAD 42936·DEBRIS·🇷🇺 Russia

Launched Sep 11, 2017 from Baikonur Cosmodrome

Loading…

Next Passes (next 24 hours)

TLE

FreshSource: Space-Track

Epoch: Sep 14, 2026, 04:40 UTC

1 42936U 17053C   26257.19450292  .00003952  00000-0  68444-3 0  9992
2 42936  49.4317 190.0927 5102021  69.1029 337.0631  5.44922471174722

Track BREEZE-M DEB in real time with AllMySat

Download on the App Store